Location: Pian di Sc�
(43.6333°N, 11.5500°E)
Time: 18:56:41
(UTC+00:00)

Cosmos 2333 Rocket - Pass Details

Date: 07 August 2020
Orbit: 837 x 864 km, 70.8° (Epoch: 20 September)

Event Time Altitude Azimuth Distance (km) Brightness Sun altitude
Rises 00:42:13 0° 325° (NW) 3,453 5.8 -27.1°
Reaches altitude 10° 00:44:57 10° 315° (NW) 2,510 4.9 -26.9°
Enters shadow 00:48:17 26° 284° (WNW) 1,640 3.6 -26.7°
